Location: Newark
(44.3681°N, 100.3364°W)
Time: 22:47:16
(UTC+00:00)

Explorer 7 - All Passes

Search period start: 18 February 2020 00:00
Search period end: 28 February 2020 00:00
Orbit: 485 x 679 km, 50.3° (Epoch: 18 February)

Date Brightness Start Highest point End Pass type
(mag) Time Alt. Az. Time Alt. Az. Time Alt. Az.
18 Feb - 00:12:50 10° WNW 00:16:47 40° N 00:20:30 10° E daylight
18 Feb - 01:53:31 10° WNW 01:57:31 74° SSW 02:01:20 10° SE visible
18 Feb - 03:35:32 10° WSW 03:37:23 13° SW 03:39:11 10° SSW visible
18 Feb - 19:15:19 10° SSW 19:19:22 30° SE 19:23:13 10° ENE daylight
18 Feb - 20:55:14 10° WSW 20:59:44 70° NNW 21:03:58 10° ENE daylight
18 Feb - 22:36:42 10° WNW 22:40:43 36° N 22:44:31 10° ENE daylight
19 Feb - 00:17:48 10° WNW 00:21:50 47° NNE 00:25:38 10° E daylight
19 Feb - 01:58:31 10° WNW 02:02:22 47° SW 02:06:03 10° SE visible
19 Feb - 19:19:43 10° SW 19:24:09 46° SE 19:28:21 10° ENE daylight
19 Feb - 21:00:18 10° W 21:04:43 54° NNW 21:08:53 10° ENE daylight
19 Feb - 22:41:49 10° WNW 22:45:50 36° N 22:49:36 10° ENE daylight
20 Feb - 00:22:44 10° WNW 00:26:51 62° NNE 00:30:43 10° ESE daylight
20 Feb - 02:03:38 10° WNW 02:07:09 30° SW 02:10:30 10° SSE visible
20 Feb - 17:46:17 10° SSE 17:48:58 15° SE 17:51:35 10° E daylight
20 Feb - 19:24:23 10° SW 19:29:00 68° SSE 19:33:21 10° ENE daylight
20 Feb - 21:05:27 10° W 21:09:45 44° NNW 21:13:49 10° ENE daylight
20 Feb - 22:46:53 10° WNW 22:50:55 38° N 22:54:43 10° ENE daylight
21 Feb - 00:27:39 10° WNW 00:31:49 85° NNE 00:35:43 10° ESE daylight
21 Feb - 02:09:01 10° W 02:11:51 19° SW 02:14:35 10° S visible
21 Feb - 17:49:55 10° S 17:53:39 24° SE 17:57:16 10° E daylight
21 Feb - 19:29:15 10° WSW 19:33:54 86° NNW 19:38:17 10° ENE daylight
21 Feb - 21:10:37 10° WNW 21:14:50 39° N 21:18:48 10° ENE daylight
21 Feb - 22:51:53 10° WNW 22:56:00 43° NNE 22:59:52 10° E daylight
22 Feb - 00:32:36 10° WNW 00:36:43 65° SSW 00:40:34 10° SE daylight
22 Feb - 02:15:10 10° WSW 02:16:29 11° SW 02:17:46 10° SSW visible
22 Feb - 17:54:05 10° SSW 17:58:24 35° SE 18:02:31 10° ENE daylight
22 Feb - 19:34:15 10° WSW 19:38:52 65° NNW 19:43:12 10° ENE daylight
22 Feb - 21:15:45 10° WNW 21:19:55 37° N 21:23:50 10° ENE daylight
22 Feb - 22:56:50 10° WNW 23:01:02 52° NNE 23:04:58 10° E daylight
23 Feb - 00:37:37 10° WNW 00:41:32 42° SW 00:45:12 10° SSE daylight
23 Feb - 16:21:55 10° SSE 16:23:19 11° SE 16:24:41 10° ESE daylight
23 Feb - 17:58:35 10° SW 18:03:12 53° SE 18:07:36 10° ENE daylight
23 Feb - 19:39:21 10° W 19:43:52 51° NNW 19:48:07 10° ENE daylight
23 Feb - 21:20:52 10° WNW 21:25:01 37° N 21:28:56 10° ENE daylight
23 Feb - 23:01:46 10° WNW 23:06:03 69° NNE 23:10:02 10° ESE daylight
24 Feb - 00:42:48 10° W 00:46:16 27° SW 00:49:34 10° SSE visible
24 Feb - 16:24:43 10° S 16:27:57 18° SE 16:31:07 10° E daylight
24 Feb - 18:03:19 10° SW 18:08:04 77° SSE 18:12:34 10° ENE daylight
24 Feb - 19:44:29 10° W 19:48:55 43° NNW 19:53:05 10° ENE daylight
24 Feb - 21:25:54 10° WNW 21:30:07 40° N 21:34:04 10° E daylight
24 Feb - 23:06:41 10° WNW 23:10:59 85° SSW 23:14:59 10° ESE daylight
25 Feb - 00:48:17 10° W 00:50:56 17° SW 00:53:31 10° S visible
25 Feb - 16:28:35 10° SSW 16:32:39 27° SE 16:36:35 10° E daylight
25 Feb - 18:08:13 10° WSW 18:12:59 79° NNW 18:17:31 10° ENE daylight
25 Feb - 19:49:39 10° WNW 19:53:59 39° N 19:58:05 10° ENE daylight
25 Feb - 21:30:53 10° WNW 21:35:11 46° NNE 21:39:12 10° E daylight
25 Feb - 23:11:39 10° WNW 23:15:51 58° SW 23:19:46 10° SE daylight
26 Feb - 16:32:53 10° SSW 16:37:24 41° SE 16:41:47 10° ENE daylight
26 Feb - 18:13:15 10° WSW 18:17:57 60° NNW 18:22:26 10° ENE daylight
26 Feb - 19:54:47 10° WNW 19:59:05 38° N 20:03:08 10° ENE daylight
26 Feb - 21:35:50 10° WNW 21:40:13 57° NNE 21:44:18 10° E daylight
26 Feb - 23:16:42 10° WNW 23:20:39 37° SW 23:24:21 10° SSE daylight
27 Feb - 14:59:55 10° SSE 15:02:16 14° SE 15:04:36 10° E daylight
27 Feb - 16:37:28 10° SW 16:42:14 60° SE 16:46:48 10° ENE daylight
27 Feb - 18:18:21 10° W 18:22:58 49° NNW 18:27:21 10° ENE daylight
27 Feb - 19:59:52 10° WNW 20:04:11 39° N 20:08:15 10° ENE daylight
27 Feb - 21:40:45 10° WNW 21:45:11 77° NNE 21:49:20 10° ESE daylight
27 Feb - 23:21:55 10° W 23:25:21 24° SW 23:28:37 10° S daylight
